• In Switzerland
  • List of Countries
  • For 7 days
  • Water Temperature
  • Satellite Maps
  • Weather Map
  • Weather Widgets
  • user-avatar
    Login

    Hourly Weather Serdyukivka

    Today, 23 April, Monday

    Time Temperature Precipitation Wind Pressure Humidity
    00:00 +13°C° 0 mm 2 mps 744 mmHg 57%
    01:00 +13°C° 0 mm 2 mps 744 mmHg 58%
    02:00 +12°C° 0 mm 2 mps 744 mmHg 58%
    03:00 +12°C° 0 mm 2 mps 744 mmHg 60%
    04:00 +10°C° 0 mm 2 mps 744 mmHg 61%
    05:00 +10°C° 0 mm 2 mps 745 mmHg 63%
    06:00 +12°C° 0 mm 2 mps 745 mmHg 60%
    07:00 +12°C° 0 mm 3 mps 745 mmHg 57%
    08:00 +12°C° 0 mm 3 mps 746 mmHg 54%
    09:00 +13°C° 0 mm 3 mps 746 mmHg 49%
    10:00 +14°C° 0 mm 4 mps 746 mmHg 44%
    11:00 +15°C° 0 mm 4 mps 746 mmHg 39%
    12:00 +15°C° 0 mm 4 mps 746 mmHg 38%
    13:00 +17°C° 0 mm 3 mps 746 mmHg 37%
    14:00 +17°C° 0 mm 3 mps 746 mmHg 37%
    15:00 +16°C° 0 mm 3 mps 746 mmHg 39%
    16:00 +16°C° 0 mm 2 mps 746 mmHg 41%
    17:00 +16°C° 0 mm 2 mps 746 mmHg 43%
    18:00 +14°C° 0 mm 2 mps 746 mmHg 47%
    19:00 +13°C° 0 mm 2 mps 747 mmHg 50%
    20:00 +12°C° 0 mm 2 mps 747 mmHg 54%
    21:00 +10°C° 0 mm 2 mps 747 mmHg 56%
    22:00 +9°C° 0 mm 3 mps 747 mmHg 58%
    23:00 +9°C° 0 mm 3 mps 747 mmHg 60%

    Tomorrow, 24 April, Tuesday

    Time Temperature Precipitation Wind Pressure Humidity
    00:00 +9°C° 0 mm 3 mps 747 mmHg 61%
    01:00 +7°C° 0 mm 4 mps 747 mmHg 62%
    02:00 +7°C° 0 mm 4 mps 747 mmHg 63%
    03:00 +7°C° 0 mm 4 mps 747 mmHg 63%
    04:00 +7°C° 0 mm 4 mps 747 mmHg 64%
    05:00 +7°C° 0 mm 4 mps 747 mmHg 64%
    06:00 +9°C° 0 mm 5 mps 746 mmHg 61%
    07:00 +10°C° 0 mm 6 mps 746 mmHg 58%
    08:00 +13°C° 0 mm 6 mps 746 mmHg 55%
    09:00 +14°C° 0 mm 7 mps 745 mmHg 56%
    10:00 +15°C° 0 mm 7 mps 745 mmHg 57%
    11:00 +15°C° 0 mm 7 mps 745 mmHg 59%
    12:00 +15°C° 0.5 mm 7 mps 744 mmHg 65%
    13:00 +15°C° 0.5 mm 6 mps 744 mmHg 71%
    14:00 +14°C° 0.5 mm 5 mps 743 mmHg 76%
    15:00 +15°C° 0.3 mm 5 mps 743 mmHg 77%
    16:00 +15°C° 0.3 mm 5 mps 743 mmHg 78%
    17:00 +16°C° 0.3 mm 5 mps 743 mmHg 78%
    18:00 +15°C° 0.1 mm 4 mps 743 mmHg 82%
    19:00 +14°C° 0.1 mm 4 mps 743 mmHg 86%
    20:00 +13°C° 0.1 mm 3 mps 743 mmHg 90%
    21:00 +13°C° 0 mm 3 mps 744 mmHg 90%
    22:00 +12°C° 0 mm 3 mps 744 mmHg 89%
    23:00 +11°C° 0 mm 3 mps 745 mmHg 88%

    Day after tomorrow, 25 April, Wednesday

    Time Temperature Precipitation Wind Pressure Humidity
    00:00 +11°C° 0 mm 3 mps 745 mmHg 87%
    01:00 +10°C° 0 mm 3 mps 745 mmHg 86%
    02:00 +10°C° 0 mm 2 mps 745 mmHg 85%
    03:00 +9°C° 0 mm 2 mps 745 mmHg 84%
    04:00 +9°C° 0 mm 2 mps 746 mmHg 83%
    05:00 +9°C° 0 mm 2 mps 746 mmHg 82%
    06:00 +10°C° 0 mm 2 mps 746 mmHg 76%
    07:00 +12°C° 0 mm 3 mps 746 mmHg 70%
    08:00 +14°C° 0 mm 3 mps 747 mmHg 64%
    09:00 +17°C° 0 mm 3 mps 747 mmHg 59%
    10:00 +18°C° 0 mm 4 mps 747 mmHg 55%
    11:00 +20°C° 0 mm 4 mps 747 mmHg 50%
    12:00 +21°C° 0 mm 5 mps 746 mmHg 49%
    13:00 +22°C° 0 mm 5 mps 746 mmHg 47%
    14:00 +22°C° 0 mm 5 mps 746 mmHg 45%
    15:00 +22°C° 0 mm 5 mps 745 mmHg 46%
    16:00 +22°C° 0 mm 4 mps 745 mmHg 47%
    17:00 +22°C° 0 mm 4 mps 745 mmHg 48%
    18:00 +21°C° 0 mm 4 mps 745 mmHg 53%
    19:00 +19°C° 0 mm 3 mps 745 mmHg 57%
    20:00 +18°C° 0 mm 3 mps 745 mmHg 62%
    21:00 +17°C° 0 mm 3 mps 745 mmHg 62%
    22:00 +17°C° 0 mm 4 mps 745 mmHg 62%
    23:00 +15°C° 0 mm 4 mps 745 mmHg 63%

    26 April, Thursday

    Time Temperature Precipitation Wind Pressure Humidity
    00:00 +15°C° 0 mm 4 mps 744 mmHg 65%
    01:00 +15°C° 0 mm 5 mps 744 mmHg 68%
    02:00 +15°C° 0 mm 6 mps 744 mmHg 71%
    03:00 +14°C° 0.2 mm 6 mps 744 mmHg 73%
    04:00 +14°C° 0.2 mm 5 mps 744 mmHg 76%
    05:00 +14°C° 0.2 mm 5 mps 743 mmHg 78%
    06:00 +15°C° 0 mm 5 mps 743 mmHg 76%
    07:00 +16°C° 0 mm 6 mps 744 mmHg 73%
    08:00 +19°C° 0 mm 6 mps 744 mmHg 70%
    09:00 +20°C° 0.1 mm 6 mps 744 mmHg 65%
    10:00 +22°C° 0.1 mm 6 mps 744 mmHg 59%
    11:00 +23°C° 0.1 mm 6 mps 744 mmHg 53%
    12:00 +23°C° 0.1 mm 6 mps 744 mmHg 52%
    13:00 +23°C° 0.1 mm 7 mps 744 mmHg 50%
    14:00 +23°C° 0.1 mm 7 mps 744 mmHg 49%
    15:00 +23°C° 0 mm 7 mps 744 mmHg 49%
    16:00 +22°C° 0 mm 6 mps 745 mmHg 49%
    17:00 +21°C° 0 mm 5 mps 745 mmHg 49%
    18:00 +19°C° 0 mm 4 mps 745 mmHg 54%
    19:00 +18°C° 0 mm 3 mps 746 mmHg 58%
    20:00 +16°C° 0 mm 2 mps 746 mmHg 62%
    21:00 +15°C° 0 mm 2 mps 747 mmHg 63%
    22:00 +14°C° 0 mm 2 mps 747 mmHg 64%
    23:00 +14°C° 0 mm 1 mps 747 mmHg 66%

    27 April, Friday

    Time Temperature Precipitation Wind Pressure Humidity
    00:00 +13°C° 0 mm 2 mps 747 mmHg 67%
    01:00 +13°C° 0 mm 2 mps 747 mmHg 69%
    02:00 +11°C° 0 mm 3 mps 747 mmHg 70%
    03:00 +11°C° 0 mm 3 mps 747 mmHg 72%
    04:00 +11°C° 0 mm 3 mps 747 mmHg 73%
    05:00 +11°C° 0 mm 3 mps 747 mmHg 75%
    06:00 +13°C° 0 mm 3 mps 747 mmHg 72%
    07:00 +14°C° 0 mm 4 mps 747 mmHg 68%
    08:00 +17°C° 0 mm 4 mps 747 mmHg 65%
    09:00 +19°C° 0 mm 5 mps 747 mmHg 61%
    10:00 +21°C° 0 mm 6 mps 746 mmHg 58%
    11:00 +23°C° 0 mm 6 mps 746 mmHg 54%
    12:00 +23°C° 0.5 mm 6 mps 746 mmHg 52%
    13:00 +24°C° 0.5 mm 6 mps 745 mmHg 50%
    14:00 +26°C° 0.5 mm 7 mps 744 mmHg 49%
    15:00 +24°C° 0.2 mm 6 mps 744 mmHg 51%
    16:00 +25°C° 0.2 mm 5 mps 744 mmHg 54%
    17:00 +23°C° 0.2 mm 4 mps 744 mmHg 56%
    18:00 +21°C° 0.4 mm 4 mps 744 mmHg 64%
    19:00 +20°C° 0.4 mm 4 mps 745 mmHg 72%
    20:00 +18°C° 0.4 mm 4 mps 745 mmHg 80%
    21:00 +16°C° 0 mm 3 mps 746 mmHg 85%
    22:00 +14°C° 0 mm 3 mps 746 mmHg 89%
    23:00 +13°C° 0 mm 3 mps 746 mmHg 94%

    28 April, Saturday

    Time Temperature Precipitation Wind Pressure Humidity
    00:00 +12°C° 0 mm 3 mps 747 mmHg 93%
    01:00 +12°C° 0 mm 3 mps 747 mmHg 93%
    02:00 +11°C° 0 mm 3 mps 747 mmHg 93%
    03:00 +10°C° 0 mm 3 mps 748 mmHg 94%
    04:00 +10°C° 0 mm 3 mps 748 mmHg 94%
    05:00 +10°C° 0 mm 3 mps 748 mmHg 94%
    06:00 +11°C° 0 mm 3 mps 749 mmHg 87%
    07:00 +12°C° 0 mm 4 mps 749 mmHg 80%
    08:00 +13°C° 0 mm 4 mps 749 mmHg 72%
    09:00 +15°C° 0 mm 4 mps 750 mmHg 64%
    10:00 +17°C° 0 mm 4 mps 750 mmHg 56%
    11:00 +19°C° 0 mm 4 mps 750 mmHg 47%
    12:00 +19°C° 0 mm 3 mps 750 mmHg 45%
    13:00 +20°C° 0 mm 3 mps 750 mmHg 42%
    14:00 +20°C° 0 mm 3 mps 750 mmHg 39%
    15:00 +20°C° 0 mm 3 mps 749 mmHg 40%
    16:00 +20°C° 0 mm 3 mps 749 mmHg 41%
    17:00 +19°C° 0 mm 3 mps 749 mmHg 42%
    18:00 +18°C° 0 mm 3 mps 749 mmHg 47%
    19:00 +16°C° 0 mm 3 mps 749 mmHg 51%
    20:00 +14°C° 0 mm 2 mps 750 mmHg 55%
    21:00 +14°C° 0 mm 2 mps 750 mmHg 57%
    22:00 +12°C° 0 mm 3 mps 750 mmHg 59%
    23:00 +11°C° 0 mm 3 mps 750 mmHg 61%
    Show more